GBYWA EGHR-EGJB

Flight info

Callsign GBYWA
Flight time N/A
Altitude 18000
Route ORTAC
Aircraft TBM8/L-SDFGRWY/S

Departure

Time 2026-04-28 15:44
Airport Goodwood Aerodrome (EGHR)

Arrival

Time N/A
Airport Guernsey Airport (EGJB)
Time Latitude Longitude Altitude Speed Heading
2026-04-28 15:35 50.85796 -0.75496 104 ft 0 kts 47°
2026-04-28 15:42 50.85798 -0.75487 104 ft 1 kts 96°
2026-04-28 15:42 50.85795 -0.75480 104 ft 0 kts 149°
2026-04-28 15:43 50.85755 -0.75469 104 ft 8 kts 158°
2026-04-28 15:43 50.85659 -0.75444 103 ft 21 kts 206°
2026-04-28 15:43 50.85620 -0.75486 103 ft 4 kts 250°
2026-04-28 15:43 50.85699 -0.75617 103 ft 44 kts 315°
2026-04-28 15:44 50.86078 -0.76147 152 ft 100 kts 319°
2026-04-28 15:44 50.86675 -0.77043 576 ft 120 kts 309°
2026-04-28 15:44 50.87169 -0.78211 906 ft 150 kts 302°
2026-04-28 15:44 50.87788 -0.79697 1408 ft 167 kts 304°
2026-04-28 15:45 50.88222 -0.80711 1899 ft 166 kts 304°
2026-04-28 15:45 50.89122 -0.82796 2951 ft 164 kts 304°
2026-04-28 15:45 50.89733 -0.84227 3669 ft 164 kts 304°
2026-04-28 15:45 50.90421 -0.85811 4454 ft 163 kts 304°
2026-04-28 15:46 50.91028 -0.87184 5132 ft 163 kts 304°
2026-04-28 15:46 50.91660 -0.88705 5872 ft 162 kts 293°
2026-04-28 15:46 50.91645 -0.90440 6560 ft 162 kts 244°
2026-04-28 15:46 50.90995 -0.91881 7284 ft 162 kts 232°
2026-04-28 15:47 50.90301 -0.93275 8021 ft 158 kts 232°
2026-04-28 15:47 50.89845 -0.94198 8469 ft 159 kts 232°
2026-04-28 15:47 50.89145 -0.95622 9175 ft 160 kts 232°
2026-04-28 15:47 50.88472 -0.96985 9842 ft 160 kts 232°
2026-04-28 15:48 50.87566 -0.98835 10741 ft 160 kts 232°
2026-04-28 15:48 50.86884 -1.00231 11413 ft 160 kts 232°
2026-04-28 15:48 50.86203 -1.01625 12076 ft 159 kts 232°
2026-04-28 15:48 50.85523 -1.03016 12729 ft 159 kts 232°
2026-04-28 15:49 50.84846 -1.04401 13373 ft 159 kts 232°
2026-04-28 15:49 50.84171 -1.05780 14013 ft 158 kts 232°
2026-04-28 15:49 50.83497 -1.07158 14644 ft 158 kts 232°
2026-04-28 15:49 50.82820 -1.08541 15268 ft 158 kts 232°
2026-04-28 15:50 50.82100 -1.09803 15846 ft 161 kts 225°
2026-04-28 15:50 50.81279 -1.11101 16386 ft 165 kts 226°
2026-04-28 15:50 50.80746 -1.11954 16824 ft 162 kts 226°
2026-04-28 15:50 50.79956 -1.13214 17452 ft 161 kts 226°
2026-04-28 15:51 50.78980 -1.14790 17997 ft 175 kts 226°
2026-04-28 15:51 50.78251 -1.15973 18013 ft 203 kts 226°
2026-04-28 15:51 50.77160 -1.17741 18018 ft 233 kts 226°
2026-04-28 15:51 50.76009 -1.19600 18018 ft 254 kts 226°
2026-04-28 15:52 50.74743 -1.21642 18015 ft 270 kts 226°
2026-04-28 15:52 50.73385 -1.23826 18008 ft 281 kts 226°
2026-04-28 15:52 50.72005 -1.26046 18013 ft 288 kts 226°
2026-04-28 15:52 50.70556 -1.28377 18003 ft 293 kts 226°
2026-04-28 15:53 50.69106 -1.30654 18012 ft 297 kts 223°
2026-04-28 15:53 50.67511 -1.32741 18009 ft 299 kts 218°
2026-04-28 15:53 50.65851 -1.34666 18007 ft 300 kts 216°
2026-04-28 15:53 50.64106 -1.36567 18014 ft 301 kts 214°
2026-04-28 15:54 50.62365 -1.38403 18010 ft 302 kts 214°
2026-04-28 15:54 50.60610 -1.40234 18013 ft 302 kts 214°
2026-04-28 15:54 50.58856 -1.42051 18013 ft 303 kts 213°
2026-04-28 15:54 50.57091 -1.43873 18013 ft 303 kts 213°
2026-04-28 15:55 50.55332 -1.45687 18009 ft 303 kts 213°
2026-04-28 15:55 50.53576 -1.47486 18005 ft 298 kts 213°
2026-04-28 15:55 50.51850 -1.49246 17997 ft 296 kts 213°
2026-04-28 15:55 50.50127 -1.51005 18003 ft 294 kts 213°
2026-04-28 15:56 50.48409 -1.52760 17997 ft 293 kts 213°
2026-04-28 15:56 50.46699 -1.54501 17975 ft 293 kts 213°
2026-04-28 15:56 50.44993 -1.56251 17733 ft 300 kts 213°
2026-04-28 15:56 50.43216 -1.58093 17482 ft 304 kts 214°
2026-04-28 15:57 50.41454 -1.59927 17233 ft 306 kts 214°
2026-04-28 15:57 50.39688 -1.61774 16987 ft 307 kts 214°
2026-04-28 15:57 50.37892 -1.63623 16738 ft 307 kts 213°
2026-04-28 15:57 50.36104 -1.65432 16486 ft 307 kts 213°
2026-04-28 15:58 50.34300 -1.67238 16231 ft 307 kts 213°
2026-04-28 15:58 50.32508 -1.69019 16011 ft 305 kts 212°
2026-04-28 15:58 50.30710 -1.70780 16003 ft 298 kts 212°
2026-04-28 15:58 50.28893 -1.72512 16000 ft 293 kts 211°
2026-04-28 15:59 50.27204 -1.74117 15997 ft 291 kts 212°
2026-04-28 15:59 50.25508 -1.75737 15995 ft 289 kts 212°
2026-04-28 15:59 50.23773 -1.77409 15994 ft 288 kts 212°
2026-04-28 15:59 50.22077 -1.79055 15995 ft 287 kts 212°
2026-04-28 16:00 50.20359 -1.80638 15994 ft 286 kts 204°
2026-04-28 16:00 50.18404 -1.81023 15989 ft 287 kts 172°
2026-04-28 16:00 50.16540 -1.79950 15994 ft 287 kts 154°
2026-04-28 16:00 50.14767 -1.78494 15998 ft 287 kts 153°
2026-04-28 16:01 50.12948 -1.77248 16000 ft 287 kts 160°
2026-04-28 16:01 50.11063 -1.76222 16002 ft 287 kts 161°
2026-04-28 16:01 50.09184 -1.75166 16003 ft 287 kts 159°
2026-04-28 16:01 50.07328 -1.73985 16003 ft 287 kts 157°
2026-04-28 16:02 50.05516 -1.72760 16003 ft 287 kts 157°
2026-04-28 16:02 50.03651 -1.71534 16005 ft 287 kts 158°
2026-04-28 16:02 50.01795 -1.70376 16006 ft 287 kts 159°
2026-04-28 16:02 49.99936 -1.69241 16007 ft 287 kts 159°
2026-04-28 16:03 49.98084 -1.68094 15862 ft 292 kts 158°
2026-04-28 16:03 49.96160 -1.66877 15489 ft 301 kts 158°
2026-04-28 16:03 49.94193 -1.65616 15113 ft 306 kts 157°
2026-04-28 16:03 49.92227 -1.64349 14741 ft 308 kts 158°
2026-04-28 16:04 49.90226 -1.63122 14369 ft 309 kts 159°
2026-04-28 16:04 49.88193 -1.61908 13986 ft 309 kts 159°
2026-04-28 16:04 49.86195 -1.60684 13612 ft 309 kts 158°
2026-04-28 16:04 49.84210 -1.59430 13237 ft 308 kts 158°
2026-04-28 16:05 49.82235 -1.58166 12863 ft 307 kts 158°
2026-04-28 16:05 49.80262 -1.56917 12487 ft 306 kts 158°
2026-04-28 16:05 49.78288 -1.55692 12112 ft 304 kts 159°
2026-04-28 16:05 49.76339 -1.54499 11741 ft 303 kts 159°
2026-04-28 16:06 49.74358 -1.53292 11442 ft 299 kts 159°
2026-04-28 16:06 49.72411 -1.52442 11172 ft 282 kts 174°
2026-04-28 16:06 49.70517 -1.52825 10570 ft 280 kts 202°
2026-04-28 16:06 49.68921 -1.54613 9266 ft 288 kts 230°
2026-04-28 16:07 49.68011 -1.57345 7661 ft 284 kts 248°
2026-04-28 16:07 49.67087 -1.59866 6998 ft 244 kts 233°
2026-04-28 16:07 49.64596 -1.61268 5053 ft 194 kts 116°
2026-04-28 16:08 49.65053 -1.59046 2961 ft 243 kts 59°
2026-04-28 16:08 49.65822 -1.56718 1899 ft 230 kts 71°
2026-04-28 16:08 49.66004 -1.54753 1596 ft 127 kts 103°
2026-04-28 16:09 49.65729 -1.52631 1019 ft 94 kts 99°
2026-04-28 16:09 49.65617 -1.51663 894 ft 90 kts 101°
2026-04-28 16:09 49.65486 -1.50697 758 ft 94 kts 102°
2026-04-28 16:10 49.65228 -1.48683 521 ft 98 kts 102°
2026-04-28 16:10 49.65107 -1.47683 467 ft 86 kts 99°
2026-04-28 16:10 49.64929 -1.46780 457 ft 5 kts 311°